Location: ????????
(37.6846°N, 24.0673°E)
Time: 14:25:36
(UTC+00:00)

Okean 2 - Pass Details

Date: 14 July 2020
Orbit: 559 x 578 km, 82.5° (Epoch: 03 August)

Event Time Altitude Azimuth Distance (km) Brightness Sun altitude
Rises 02:35:02 0° 340° (NNW) 2,755 7.1 -7.3°
Reaches altitude 10° 02:37:25 10° 329° (NNW) 1,853 6.1 -6.9°
Maximum altitude 02:40:55 28° 270° (W) 1,062 4.3 -6.4°
Drops below altitude 10° 02:44:24 10° 210° (SSW) 1,839 5.4 -5.8°
Enters shadow 02:46:43 - 199° (SSW) 2,710 6.4 -5.4°
